Weather Roundup
Issued by NWS Springfield, MO

Home | Current Version | Previous Version | Text Only | Print | Product List | Glossary On
Versions: 1 2 3 4 5 6 7 8 9 10 11 12 13 14 15 16 17 18 19 20 21 22 23 24 25 26 27 28 29 30 31 32 33 34 35 36 37 38 39 40 41 42 43 44 45 46 47 48 49 50
000
NZUS99 KSGF 250207
HRRSGF

HOURLY WEATHER
NATIONAL WEATHER SERVICE SPRINGFIELD MO
900 PM CDT WED AUG 24 2016

......SGF CWA......

CITY           SKY/WX    TMP DP  RH WIND       PRES   REMARKS
SPRINGFIELD    CLEAR     82  69  64 S14       30.04R
JOPLIN         CLEAR     84  69  60 S14       30.00R
WEST PLAINS    CLEAR     81  70  69 S7        30.10R
ROLLA          CLEAR     81  74  79 S10       30.02R
OSAGE BEACH    CLEAR     82  75  79 S6        30.01R
BRANSON        CLEAR     79  72  78 S7        30.09R

......SURROUNDING SGF CWA......

CITY           SKY/WX    TMP DP  RH WIND       PRES   REMARKS
CHANUTE        PTCLDY    85  68  56 SW13      30.00R
PARSONS        MOCLDY    85  67  54 S6        29.99R
COFFEYVILLE    PTCLDY    87  67  51 S14       29.97R HX  90
EMPORIA        CLOUDY    73  71  93 N6        30.00R
GROVE OK       CLEAR     86  68  54 S7        30.03R
ROGERS AR      CLEAR     81  69  67 S9        30.08R
SILOAM SPRINGS CLEAR     82  61  47 S8        30.08
HARRISON AR    CLEAR     77  71  82 S6        30.09R
NEAR YELLVILLE CLEAR     82  70  65 S5        30.05R

......KANSAS AND MISSOURI......

CITY           SKY/WX    TMP DP  RH WIND       PRES   REMARKS
KANSAS CTY INT TSTM      71  68  90 N6        30.03R FOG
DOWNTOWN KC    CLOUDY    74  71  91 N10       29.99R
COLUMBIA       CLEAR     81  75  82 SE6       30.00R
SEDALIA        PTCLDY    81  75  82 SE5       29.98R
ST JOSEPH      CLOUDY    70  66  87 N8        30.02R
ST LOUIS       CLOUDY    87  74  64 S5        30.01R HX  95
SPIRIT OF STL  CLOUDY    84  76  76 S8        29.99R HX  93
KIRKSVILLE     CLOUDY    75  73  93 CALM      30.01R
WICHITA        MOCLDY    76  69  79 SE7       30.00R
TOPEKA         LGT RAIN  72  70  93 N6        29.99R
OLATHE         TSTM      72  68  87 N12       29.96F FOG

......TENNESSEE......

CITY           SKY/WX    TMP DP  RH WIND       PRES   REMARKS
MEMPHIS        PTCLDY    84  74  71 SW5       30.11R HX  91
NASHVILLE      MOCLDY    82  73  74 S3        30.14R

......ARKANSAS.......

CITY           SKY/WX    TMP DP  RH WIND       PRES   REMARKS
FAYETTEVILLE   CLEAR     77  69  76 S7        30.07R
FT SMITH       CLEAR     82  67  60 S6        30.04R
LITTLE ROCK    CLEAR     84  76  76 S6        30.08S HX  93

......OKLAHOMA.......

CITY           SKY/WX    TMP DP  RH WIND       PRES   REMARKS
TULSA          PTCLDY    89  66  46 S14       29.97R HX  91
PONCA CITY     MOCLDY    74  69  85 CALM      29.97F
MCALESTER      CLEAR     84  65  52 SE7       30.04R
OKLAHOMA CITY  PTCLDY    84  67  56 S12       30.00R

......IOWA............

CITY           SKY/WX    TMP DP  RH WIND       PRES   REMARKS
DES MOINES     CLOUDY    74  69  85 W6        30.02R
QUAD CITIES    CLOUDY    77  71  82 CALM      29.96R

......ILLINOIS........

CITY           SKY/WX    TMP DP  RH WIND       PRES   REMARKS
QUINCY         CLEAR     80  75  84 CALM      29.99R
CHICAGO        MOCLDY    78  72  81 SW3       29.96S




USA.gov is the U.S. government's official web portal to all federal, state and local government web resources and services.